Weather History for Salina, KS

Change the Weather History Date:

Monday, June 10, 2013

  Actual Average Record
Temperature  
Mean Temperature 76 °F 74 °F  
Max Temperature 94 °F 85 °F 108 °F (1933)
Min Temperature 57 °F 63 °F 48 °F (1979)
Degree Days  
Heating Degree Days 0 0  
Month to date heating degree days 7 5  
Since 1 June heating degree days 7 5  
Since 1 July heating degree days 4924 4869  
Cooling Degree Days 11 9  
Month to date cooling degree days 40 79  
Year to date cooling degree days 181 207  
Since 1 June cooling degree days 40 79  
Growing Degree Days 25 (Base 50)    
Moisture  
Dew Point 63 °F    
Average Humidity 66    
Maximum Humidity 87    
Minimum Humidity 44    
Precipitation  
Precipitation 0.00 in 0.14 in 1.78 in (1989)
Month to date precipitation 1.80 1.46  
Year to date precipitation 15.04 13.45  
Sea Level Pressure  
Sea Level Pressure 29.79 in    
Wind  
Wind Speed 8 mph (SSE)    
Max Wind Speed 17 mph    
Max Gust Speed 23 mph    
Visibility 10 miles    
Events      
T = Trace of Precipitation, MM = Missing Value Source: NWS Daily Summary

Daily Weather History Graph

Daily Weather History Graph

Search for Another Location

Airport:

Trip Planner

Search our weather history database for the weather conditions in past years. The results will help you decide how hot, cold, wet, or windy it might be!

Date:

Astronomy

Jun. 10, 2013 Rise Set
Actual Time 6:05 AM CDT 8:55 PM CDT
Civil Twilight 5:33 AM CDT 9:27 PM CDT
Nautical Twilight 4:53 AM CDT 10:07 PM CDT
Astronomical Twilight 4:07 AM CDT 10:53 PM CDT
Moon 7:54 AM CDT (6/10) 10:24 PM CDT (6/10)
Length of Visible Light 15h 53m
Length of Day
14h 50m
Waxing Crescent, 4% of the Moon is Illuminated
Jun 10
Waxing Crescent
Jun 16
First Quarter
Jun 23
Full
Jun 29
Last Quarter
Jul 8
New

Hourly Weather History & Observations

Time (CDT) Temp. Heat Index Dew Point Humidity Pressure Visibility Wind Dir Wind Speed Gust Speed Precip Events Conditions
12:53 AM 64.0 °F - 59.0 °F 84% 29.87 in 10.0 mi Calm Calm - N/A   Clear
1:53 AM 62.1 °F - 57.0 °F 84% 29.88 in 10.0 mi Calm Calm - N/A   Clear
2:53 AM 62.1 °F - 55.9 °F 80% 29.87 in 10.0 mi Calm Calm - N/A   Clear
3:53 AM 61.0 °F - 55.9 °F 83% 29.86 in 10.0 mi Calm Calm - N/A   Clear
4:53 AM 59.0 °F - 55.9 °F 90% 29.85 in 10.0 mi Calm Calm - N/A   Clear
5:53 AM 57.0 °F - 54.0 °F 89% 29.86 in 10.0 mi SSE 3.5 mph - N/A   Clear
6:53 AM 60.1 °F - 55.0 °F 83% 29.87 in 10.0 mi Calm Calm - N/A   Clear
7:53 AM 64.9 °F - 55.0 °F 70% 29.86 in 10.0 mi Calm Calm - N/A   Clear
8:53 AM 71.1 °F - 59.0 °F 66% 29.85 in 10.0 mi SE 6.9 mph - N/A   Clear
9:53 AM 77.0 °F - 57.0 °F 50% 29.84 in 10.0 mi SE 10.4 mph - N/A   Clear
10:53 AM 81.0 °F 81.1 °F 57.9 °F 45% 29.83 in 10.0 mi SE 11.5 mph - N/A   Clear
11:53 AM 84.0 °F 84.0 °F 60.1 °F 44% 29.82 in 10.0 mi ESE 11.5 mph - N/A   Clear
12:53 PM 88.0 °F 89.6 °F 64.9 °F 46% 29.80 in 10.0 mi SE 10.4 mph - N/A   Clear
1:53 PM 90.0 °F 91.7 °F 64.9 °F 43% 29.79 in 10.0 mi SE 9.2 mph - N/A   Clear
2:53 PM 91.0 °F 95.6 °F 69.1 °F 48% 29.78 in 10.0 mi SSE 11.5 mph - N/A   Clear
3:53 PM 93.0 °F 97.9 °F 69.1 °F 45% 29.76 in 10.0 mi SSE 13.8 mph 20.7 mph N/A   Clear
4:53 PM 93.0 °F 99.0 °F 70.0 °F 47% 29.74 in 10.0 mi SSE 13.8 mph - N/A   Clear
5:53 PM 93.0 °F 100.1 °F 71.1 °F 49% 29.73 in 10.0 mi SSE 11.5 mph - N/A   Clear
6:53 PM 91.9 °F 98.4 °F 71.1 °F 50% 29.71 in 10.0 mi SSE 13.8 mph 21.9 mph N/A   Clear
7:53 PM 89.1 °F 95.0 °F 71.1 °F 55% 29.69 in 10.0 mi SE 11.5 mph - N/A   Clear
8:53 PM 84.0 °F 89.6 °F 72.0 °F 67% 29.69 in 10.0 mi SE 10.4 mph - N/A   Clear
9:53 PM 82.0 °F 86.3 °F 71.1 °F 69% 29.69 in 10.0 mi SE 10.4 mph - N/A   Clear
10:53 PM 80.1 °F 82.3 °F 66.9 °F 64% 29.70 in 10.0 mi SSE 11.5 mph - N/A   Clear
11:53 PM 80.1 °F 82.1 °F 66.0 °F 62% 29.70 in 10.0 mi South 12.7 mph 19.6 mph N/A   Clear